Tracking 28799 objects as of 18-Apr-2024
HD Live streaming from Space Station
objects crossing your sky now

COSMOS 1390

Track COSMOS 1390 now!
10-day predictions
COSMOS 1390 is classified as:


NORAD ID: 13377
Int'l Code: 1982-073C
Perigee: 1,434.1 km
Apogee: 1,481.1 km
Inclination: 74.0 °
Period: 114.9 minutes
Semi major axis: 7828 km
RCS: 0.6906 m2 (medium)
Launch date: July 21, 1982
Source: Commonwealth of Independent States (former USSR) (CIS)
Launch site: PLESETSK MISSILE AND SPACE COMPLEX (PKMTR)
Your satellite tracking list
Your tracking list is empty




NASA's NSSDC Master Catalog

Two Line Element Set (TLE):
1 13377U 82073C   24108.61863407  .00000000  00000-0  10275-3 0  9999
2 13377  74.0140 162.5135 0030005 111.1672   2.5870 12.53357579909860
Source of the keplerian elements: AFSPC